< < Back
Terminal Aerodrome Forecast


Current Version              Previous Versions:   1  2  3  4  5  6  7  8  9  

Terminal Aerodrome Forecast

054
FTUS42 KILM 171700
TAFFLO
TAF
KFLO 171722Z 1718/1818 02010KT P6SM SCT040
     FM180400 04008KT P6SM SCT025 BKN050
     FM181000 04010KT P6SM SCT006 SCT025 BKN045
     FM181300 05012KT P6SM BKN035 BKN080=



Latest METAR

736
SAUS70 KWBC 180500 RRB
MTRFLO
METAR KFLO 180453Z AUTO 05007KT 10SM CLR 10/07 A3037 RMK AO2 SLP283
T01000067 402000028


USA.gov is the U.S. government's official web portal to all federal, state and local government web resources and services.